Temp
-14 -15 -16 -17 -17 -17 -17 -17 -17 -18 -19 -19 -18 -18 -18 -18 -17 -16 -15 -14 -13 -12 -12 -12 -12 -12 -11 -11 -11 -12 -11 -11 -11 -11 -11 -11 -11 -10 -11 -10 -10 -10 -10 -10 -10
-14 -15 -16 -16 -17 -17 -17 -18 -18 -18 -19 -19 -19 -18 -18 -17 -17 -17 -16 -15 -14 -13 -12 -12 -12 -12 -12 -11 -11 -12 -11 -11 -11 -11 -11 -11 -11 -11 -10 -10 -10 -10 -10 -10 -10
-15 -15 -16 -17 -17 -17 -17 -18 -18 -18 -18 -19 -18 -18 -18 -17 -17 -17 -16 -16 -15 -14 -13 -13 -12 -12 -12 -12 -11 -11 -11 -12 -12 -11 -11 -11 -12 -11 -11 -11 -10 -10 -10 -10 -10
-15 -16 -16 -17 -18 -18 -18 -18 -18 -19 -18 -18 -19 -18 -18 -18 -17 -17 -17 -16 -16 -15 -14 -13 -13 -12 -12 -12 -12 -11 -12 -12 -12 -12 -11 -12 -12 -12 -11 -11 -11 -11 -11 -11 -11
-16 -17 -17 -18 -19 -19 -19 -18 -18 -18 -19 -19 -18 -19 -18 -18 -18 -18 -17 -17 -17 -16 -15 -14 -13 -13 -12 -12 -12 -12 -12 -12 -12 -12 -12 -12 -12 -12 -12 -12 -11 -12 -11 -11 -11
-17 -17 -18 -18 -19 -19 -19 -19 -19 -19 -19 -19 -19 -19 -19 -18 -19 -18 -18 -18 -18 -18 -16 -15 -14 -14 -13 -13 -13 -12 -12 -12 -12 -12 -12 -12 -12 -12 -12 -12 -11 -11 -11 -11 -11
-17 -17 -18 -19 -19 -19 -19 -18 -18 -19 -20 -20 -20 -20 -19 -19 -19 -18 -18 -18 -18 -18 -17 -16 -15 -14 -13 -13 -13 -13 -13 -12 -12 -12 -12 -12 -12 -12 -12 -12 -11 -11 -11 -11 -11
-16 -17 -18 -18 -19 -19 -19 -19 -19 -20 -20 -20 -20 -20 -20 -20 -19 -19 -19 -19 -19 -19 -18 -17 -16 -15 -14 -13 -13 -13 -13 -13 -12 -12 -12 -12 -12 -12 -12 -12 -12 -12 -12 -11 -11
-16 -17 -17 -18 -19 -19 -19 -19 -19 -20 -21 -20 -20 -20 -20 -20 -20 -19 -19 -19 -19 -19 -18 -18 -17 -15 -15 -14 -13 -13 -13 -12 -12 -12 -12 -12 -12 -11 -12 -12 -12 -12 -12 -11 -11
-16 -17 -17 -18 -19 -20 -19 -19 -20 -20 -20 -20 -20 -20 -20 -20 -20 -19 -19 -19 -19 -19 -19 -19 -17 -16 -15 -14 -13 -12 -13 -13 -13 -12 -12 -12 -12 -12 -12 -12 -12 -12 -12 -12 -12
-16 -17 -17 -18 -19 -20 -20 -19 -20 -20 -20 -20 -20 -20 -20 -20 -20 -19 -19 -19 -19 -19 -19 -19 -18 -16 -16 -15 -14 -13 -13 -13 -13 -13 -12 -12 -12 -12 -12 -12 -11 -12 -12 -12 -12
-16 -17 -17 -18 -19 -19 -20 -20 -19 -20 -21 -20 -20 -20 -20 -20 -20 -20 -19 -19 -19 -19 -19 -19 -18 -17 -16 -15 -14 -14 -14 -13 -13 -13 -13 -12 -12 -12 -12 -12 -12 -11 -11 -12 -12
-17 -17 -17 -18 -18 -19 -19 -20 -20 -20 -20 -20 -20 -20 -20 -20 -20 -20 -20 -19 -19 -19 -20 -19 -18 -17 -16 -15 -15 -14 -14 -13 -13 -13 -13 -12 -12 -12 -12 -12 -12 -11 -11 -11 -12
-16 -17 -17 -18 -18 -19 -19 -19 -20 -20 -20 -20 -20 -20 -20 -20 -20 -20 -20 -20 -20 -20 -20 -19 -18 -17 -16 -15 -15 -14 -14 -13 -13 -13 -13 -12 -12 -12 -12 -12 -12 -12 -12 -11 -11
-16 -17 -17 -17 -18 -18 -19 -19 -19 -19 -20 -20 -20 -20 -20 -20 -20 -20 -20 -20 -20 -20 -20 -19 -18 -17 -16 -16 -15 -14 -14 -14 -13 -13 -13 -13 -12 -12 -12 -12 -12 -12 -12 -12 -12
-16 -16 -17 -17 -17 -18 -18 -18 -19 -19 -20 -19 -20 -20 -20 -20 -20 -20 -20 -20 -20 -20 -19 -19 -18 -17 -16 -16 -15 -14 -14 -14 -14 -13 -13 -12 -12 -12 -12 -12 -12 -12 -12 -12 -12
-15 -16 -16 -17 -17 -17 -18 -18 -18 -19 -19 -19 -19 -19 -19 -19 -19 -20 -20 -19 -19 -19 -19 -19 -18 -17 -16 -16 -15 -14 -14 -14 -14 -13 -12 -13 -12 -12 -12 -12 -12 -12 -12 -12 -12
-15 -15 -15 -16 -17 -17 -17 -18 -18 -18 -18 -18 -18 -19 -18 -18 -19 -19 -19 -19 -19 -19 -19 -18 -17 -17 -16 -15 -15 -14 -14 -14 -13 -13 -13 -13 -12 -12 -12 -12 -12 -12 -12 -12 -12
-14 -14 -15 -15 -16 -16 -16 -17 -17 -18 -18 -18 -18 -18 -19 -18 -18 -18 -19 -19 -19 -19 -18 -18 -17 -16 -16 -15 -15 -14 -14 -14 -13 -13 -13 -13 -13 -13 -13 -13 -13 -13 -12 -13 -13
-15 -15 -14 -15 -15 -16 -16 -16 -16 -17 -17 -17 -18 -18 -18 -18 -18 -18 -18 -18 -19 -18 -18 -17 -17 -16 -16 -15 -14 -14 -14 -13 -13 -13 -13 -13 -13 -13 -13 -13 -13 -13 -13 -13 -13
-15 -15 -15 -15 -15 -15 -15 -16 -16 -16 -16 -16 -17 -17 -18 -17 -18 -18 -18 -18 -18 -18 -18 -17 -17 -16 -15 -15 -14 -14 -14 -14 -14 -13 -13 -12 -13 -13 -13 -13 -13 -13 -13 -13 -13
-15 -15 -15 -15 -15 -15 -15 -15 -15 -16 -16 -16 -16 -16 -16 -17 -17 -17 -17 -17 -17 -17 -17 -17 -17 -17 -16 -15 -15 -15 -14 -14 -14 -13 -13 -13 -13 -14 -13 -13 -13 -13 -13 -13 -13
-15 -15 -15 -15 -15 -15 -15 -15 -15 -15 -15 -15 -16 -16 -16 -16 -16 -17 -16 -16 -16 -16 -16 -16 -16 -16 -16 -16 -16 -15 -15 -15 -14 -14 -14 -14 -14 -13 -13 -13 -13 -13 -13 -13 -13
-15 -15 -15 -15 -15 -15 -15 -15 -15 -14 -15 -15 -15 -15 -15 -16 -16 -16 -16 -16 -16 -15 -15 -15 -15 -15 -15 -15 -15 -15 -15 -15 -14 -14 -14 -13 -13 -14 -13 -13 -13 -13 -13 -13 -13
-15 -15 -15 -15 -15 -15 -15 -15 -15 -15 -14 -14 -14 -14 -14 -15 -15 -15 -15 -15 -15 -15 -15 -15 -14 -14 -14 -14 -14 -14 -14 -13 -13 -13 -13 -13 -14 -14 -14 -13 -13 -13 -13 -13 -13
-15 -15 -15 -15 -15 -15 -15 -15 -15 -15 -15 -14 -14 -14 -14 -14 -14 -14 -14 -14 -15 -15 -14 -14 -14 -14 -14 -14 -14 -13 -13 -13 -13 -13 -13 -13 -13 -14 -13 -13 -13 -13 -14 -14 -14
-16 -16 -15 -15 -15 -15 -15 -15 -14 -14 -15 -14 -14 -14 -14 -14 -14 -14 -14 -14 -14 -14 -14 -14 -14 -14 -14 -14 -13 -13 -14 -14 -14 -14 -14 -14 -14 -14 -14 -14 -14 -14 -14 -14 -14
Height
5729 5719 5708 5702 5698 5694 5690 5685 5679 5674 5671 5673 5677 5682 5686 5693 5702 5713 5720 5726 5739 5750 5761 5773 5784 5794 5802 5811 5820 5829 5835 5844 5851 5857 5863 5866 5870 5873 5875 5878 5880 5882 5883 5884 5884
5724 5713 5704 5698 5693 5689 5685 5679 5674 5670 5668 5669 5673 5676 5682 5688 5696 5702 5708 5718 5728 5739 5750 5761 5773 5784 5793 5802 5812 5819 5828 5840 5846 5852 5858 5862 5864 5869 5872 5874 5876 5878 5879 5880 5881
5720 5711 5702 5695 5689 5683 5678 5673 5669 5666 5665 5666 5669 5672 5677 5683 5689 5693 5703 5710 5717 5726 5738 5750 5763 5774 5785 5795 5805 5813 5822 5833 5839 5845 5851 5857 5860 5865 5868 5871 5873 5875 5876 5877 5878
5717 5708 5700 5692 5685 5678 5673 5668 5663 5662 5661 5661 5665 5669 5673 5679 5684 5688 5695 5701 5708 5717 5729 5740 5752 5764 5776 5787 5797 5806 5817 5825 5833 5838 5845 5850 5855 5861 5864 5866 5869 5871 5872 5873 5874
5716 5707 5698 5689 5682 5674 5667 5663 5659 5656 5656 5656 5659 5662 5668 5673 5677 5682 5688 5694 5701 5708 5718 5731 5743 5755 5768 5780 5790 5799 5810 5818 5827 5833 5838 5844 5849 5854 5857 5860 5863 5865 5867 5869 5870
5715 5706 5697 5689 5681 5672 5664 5658 5654 5651 5650 5651 5653 5657 5661 5666 5671 5676 5683 5689 5694 5701 5710 5722 5734 5745 5758 5771 5783 5793 5804 5813 5821 5828 5834 5840 5845 5849 5854 5857 5859 5862 5864 5865 5866
5715 5706 5697 5689 5681 5672 5663 5656 5651 5647 5646 5648 5650 5653 5656 5661 5666 5672 5678 5684 5690 5696 5704 5712 5724 5737 5750 5763 5775 5786 5798 5806 5814 5822 5829 5835 5841 5847 5850 5852 5855 5858 5859 5860 5862
5715 5706 5698 5690 5682 5672 5664 5656 5650 5644 5644 5646 5648 5650 5654 5658 5663 5668 5674 5680 5686 5693 5699 5707 5718 5730 5743 5756 5767 5779 5791 5799 5808 5815 5823 5830 5839 5842 5844 5847 5851 5853 5855 5856 5858
5715 5707 5700 5693 5684 5674 5665 5659 5651 5645 5644 5646 5648 5650 5653 5657 5661 5666 5671 5677 5684 5689 5695 5703 5713 5725 5738 5750 5762 5772 5785 5793 5803 5810 5818 5825 5833 5836 5839 5843 5846 5848 5850 5852 5853
5717 5709 5702 5695 5686 5677 5668 5661 5654 5649 5646 5647 5649 5652 5654 5657 5661 5665 5670 5675 5681 5687 5693 5700 5708 5721 5733 5745 5757 5769 5780 5789 5798 5807 5814 5820 5827 5831 5834 5838 5840 5843 5846 5847 5847
5719 5711 5703 5697 5689 5681 5672 5665 5660 5655 5652 5651 5652 5654 5655 5659 5662 5664 5669 5674 5680 5686 5692 5698 5707 5720 5733 5745 5755 5767 5778 5787 5796 5803 5810 5816 5822 5825 5829 5833 5836 5838 5840 5840 5841
5721 5715 5706 5699 5693 5685 5677 5670 5666 5661 5657 5656 5657 5657 5658 5660 5663 5666 5670 5675 5679 5684 5689 5698 5707 5719 5730 5740 5751 5762 5771 5781 5790 5797 5804 5810 5817 5820 5823 5828 5830 5833 5834 5835 5835
5725 5718 5711 5703 5696 5690 5683 5676 5671 5667 5664 5662 5661 5660 5661 5663 5664 5666 5670 5674 5679 5683 5690 5698 5708 5718 5729 5738 5748 5759 5769 5777 5786 5792 5798 5805 5812 5815 5819 5823 5825 5827 5828 5828 5828
5729 5722 5715 5710 5702 5694 5689 5681 5676 5673 5671 5669 5666 5667 5667 5666 5667 5668 5672 5676 5680 5684 5691 5698 5706 5718 5729 5738 5748 5757 5766 5774 5781 5788 5794 5800 5806 5809 5813 5817 5820 5821 5821 5822 5822
5733 5727 5721 5714 5708 5701 5696 5689 5683 5679 5677 5676 5672 5671 5670 5672 5673 5673 5674 5677 5682 5688 5696 5701 5707 5718 5728 5737 5746 5755 5763 5771 5777 5783 5789 5795 5800 5805 5809 5812 5814 5815 5816 5816 5815
5738 5732 5726 5721 5715 5709 5702 5697 5692 5688 5683 5681 5678 5677 5677 5677 5677 5678 5678 5681 5685 5691 5699 5702 5710 5719 5728 5736 5745 5753 5761 5768 5774 5779 5784 5789 5793 5801 5804 5806 5808 5809 5809 5809 5809
5743 5737 5731 5726 5721 5715 5710 5706 5701 5694 5691 5689 5686 5683 5683 5683 5683 5683 5685 5687 5692 5698 5702 5705 5713 5720 5728 5736 5744 5751 5758 5765 5771 5774 5779 5786 5788 5796 5798 5800 5802 5803 5803 5802 5801
5747 5741 5736 5731 5726 5721 5717 5713 5708 5703 5699 5695 5694 5692 5690 5689 5689 5690 5691 5693 5697 5702 5704 5710 5718 5723 5730 5737 5745 5751 5757 5763 5767 5771 5776 5780 5782 5788 5792 5794 5795 5795 5795 5795 5794
5749 5746 5740 5736 5731 5727 5723 5720 5715 5712 5709 5705 5701 5699 5698 5696 5696 5697 5698 5700 5702 5705 5709 5714 5721 5726 5731 5737 5744 5749 5756 5761 5764 5768 5772 5775 5779 5783 5786 5787 5787 5788 5787 5787 5786
5751 5746 5744 5739 5735 5732 5729 5724 5722 5719 5716 5714 5711 5706 5705 5704 5704 5704 5705 5707 5708 5710 5712 5718 5723 5727 5732 5737 5743 5748 5754 5758 5761 5764 5767 5770 5773 5777 5780 5780 5780 5780 5779 5779 5779
5754 5749 5746 5742 5739 5736 5732 5729 5726 5724 5722 5720 5717 5715 5713 5710 5710 5710 5711 5712 5713 5715 5717 5720 5724 5729 5732 5737 5741 5747 5750 5754 5757 5759 5762 5765 5769 5772 5774 5774 5774 5773 5772 5771 5770
5754 5752 5748 5745 5743 5738 5736 5732 5729 5727 5726 5724 5722 5720 5719 5718 5716 5714 5715 5716 5717 5719 5720 5723 5726 5729 5733 5736 5740 5743 5747 5750 5752 5756 5757 5759 5764 5766 5768 5768 5766 5764 5763 5762 5760
5756 5752 5749 5746 5744 5741 5738 5735 5733 5729 5728 5727 5725 5725 5723 5722 5722 5721 5720 5720 5721 5723 5725 5726 5728 5730 5733 5737 5739 5741 5745 5747 5748 5750 5753 5754 5760 5762 5759 5757 5756 5754 5753 5751 5750
5755 5753 5751 5747 5744 5742 5739 5737 5735 5733 5731 5728 5727 5726 5725 5725 5724 5724 5724 5724 5724 5725 5726 5727 5729 5731 5733 5735 5738 5740 5742 5743 5744 5746 5750 5750 5752 5751 5749 5747 5745 5744 5743 5741 5738
5754 5752 5748 5747 5744 5742 5740 5737 5736 5734 5732 5731 5729 5727 5725 5725 5725 5724 5725 5725 5726 5726 5727 5728 5729 5730 5732 5733 5735 5736 5737 5738 5740 5740 5740 5745 5743 5742 5739 5735 5734 5734 5732 5729 5726
5748 5748 5747 5745 5742 5740 5738 5737 5734 5733 5732 5731 5730 5728 5727 5725 5724 5724 5724 5724 5724 5726 5726 5727 5728 5728 5729 5730 5731 5732 5733 5734 5734 5734 5733 5732 5734 5730 5727 5725 5724 5722 5719 5717 5714
5742 5741 5740 5740 5738 5737 5735 5733 5732 5730 5730 5728 5727 5726 5725 5724 5724 5723 5722 5722 5722 5722 5722 5723 5724 5724 5726 5725 5725 5727 5728 5726 5727 5725 5723 5722 5722 5720 5719 5717 5714 5712 5708 5705 5701
Wind_Speed
40 40 33 26 23 23 26 28 27 24 23 28 30 36 40 46 55 54 58 63 69 68 71 71 66 65 62 60 60 56 52 45 40 36 32 30 25 23 23 22 21 17 17 16 14
39 38 31 25 19 21 26 24 21 19 19 21 22 29 35 38 41 46 51 56 65 69 69 72 70 68 67 63 65 59 57 47 42 38 34 32 31 25 23 22 22 22 19 18 17
35 34 28 24 22 25 25 24 20 16 18 22 21 24 29 33 36 40 40 46 55 66 69 70 72 70 69 66 63 61 57 49 47 42 37 34 31 29 25 24 24 22 19 19 20
32 32 30 30 27 26 24 23 20 16 16 23 28 26 28 29 30 32 33 37 46 57 65 68 71 71 70 68 63 61 57 52 47 42 36 35 30 27 26 25 23 17 19 19 20
30 31 31 30 28 26 24 21 19 16 18 18 23 30 32 32 31 30 31 34 38 49 58 65 68 70 69 68 64 60 56 52 47 42 44 36 36 31 29 28 26 24 25 23 21
31 31 31 32 31 31 28 21 18 15 15 19 19 24 27 31 30 31 32 32 33 37 47 58 64 69 68 66 64 60 55 50 46 44 40 37 33 28 23 24 27 26 25 24 24
31 32 31 31 32 33 30 20 17 13 12 15 16 16 22 26 28 29 30 32 32 33 41 49 60 66 68 65 64 61 55 51 48 44 42 39 35 31 30 31 29 29 29 29 27
32 32 34 31 34 34 30 23 22 16 7 11 11 12 13 18 21 24 26 31 30 30 37 45 54 61 63 64 63 61 56 53 50 46 43 40 34 32 32 31 29 30 30 29 28
36 33 33 33 34 35 33 24 25 20 6 6 7 7 11 14 17 18 23 28 29 31 35 44 49 58 61 59 61 61 58 55 50 46 43 39 32 32 31 31 31 31 30 31 31
40 37 33 34 31 34 32 29 23 20 5 5 5 2 9 13 12 16 21 25 28 27 34 44 49 54 57 57 61 60 57 54 48 45 42 38 32 32 32 32 33 33 32 30 31
45 40 36 33 34 31 31 28 30 20 12 6 7 2 9 11 10 13 18 23 25 27 33 45 48 49 51 51 53 52 51 49 46 42 40 37 34 34 35 33 32 33 30 29 30
41 41 37 36 33 33 29 24 26 25 15 9 5 3 9 11 13 12 17 21 23 27 33 43 46 46 47 48 50 50 50 49 46 43 40 37 34 35 35 32 33 30 28 29 30
36 40 38 39 33 33 30 23 22 22 22 18 15 8 11 11 13 14 17 21 24 28 33 42 43 43 44 44 46 47 48 47 46 43 41 37 34 35 34 32 32 29 29 29 31
34 35 39 38 38 31 31 28 22 21 20 16 15 12 8 10 10 15 17 20 24 28 34 38 40 41 40 40 41 42 45 45 44 42 41 38 35 35 34 32 30 30 30 30 31
32 32 34 36 35 36 30 33 27 24 23 15 15 13 12 9 11 12 15 18 22 25 31 37 38 38 38 37 38 39 42 43 42 42 40 39 37 35 33 31 30 30 31 32 34
31 30 31 33 33 37 34 30 32 31 26 24 20 20 16 14 13 13 16 19 21 23 28 31 34 36 35 34 34 36 38 40 40 40 41 39 38 33 32 31 31 31 33 34 35
33 30 29 28 28 31 32 33 31 31 30 30 23 22 20 17 16 17 16 16 18 22 24 25 29 31 32 31 32 33 35 37 39 40 41 37 37 33 32 32 32 33 35 36 38
31 32 30 27 26 26 29 30 32 28 28 31 28 20 21 20 19 18 17 18 19 19 20 22 26 28 28 28 28 29 31 34 37 39 39 37 38 33 30 31 32 34 36 38 38
29 30 31 28 25 24 23 25 27 28 26 25 28 26 18 20 18 18 16 16 19 19 20 20 22 24 26 26 26 27 28 30 33 35 34 35 34 32 30 31 33 35 36 37 37
28 28 27 27 27 23 21 21 22 25 23 22 19 20 21 17 18 17 16 14 15 16 21 20 21 23 24 25 25 25 25 27 28 31 32 32 31 30 31 32 34 37 38 37 35
26 26 26 25 25 25 21 19 18 19 21 20 18 17 14 18 16 15 13 12 13 13 15 16 18 21 23 24 24 25 26 26 28 30 30 31 30 30 31 32 33 33 33 33 34
24 25 25 24 23 23 23 21 17 16 16 17 16 16 13 9 12 15 13 10 10 10 11 12 14 18 18 22 24 25 26 28 30 29 30 30 28 27 27 28 30 33 34 36 38
22 23 22 21 21 20 18 19 18 16 13 13 12 12 11 9 9 5 10 11 8 7 6 6 8 12 17 20 22 24 24 26 27 29 29 30 25 23 28 32 34 36 38 40 42
23 23 23 21 20 19 18 17 16 17 15 11 10 10 9 8 6 5 3 4 8 9 6 8 8 7 12 13 17 17 21 23 25 25 23 27 25 26 32 35 38 40 41 42 42
28 27 24 23 22 20 20 16 15 15 15 14 11 9 7 7 5 4 3 2 3 6 9 9 11 12 13 14 16 17 22 24 25 27 29 25 29 30 36 40 42 41 41 42 44
30 30 29 27 25 23 20 20 18 15 15 14 15 12 10 7 7 8 8 8 9 9 10 11 12 16 17 19 22 23 24 25 26 28 31 33 32 37 40 41 41 42 45 49 52
36 35 34 31 28 27 24 23 22 20 18 16 16 17 16 15 13 10 11 12 13 14 16 17 19 21 21 24 26 25 26 30 31 33 36 36 37 38 40 43 46 49 52 53 56
Wind_Direction
348 341 328 318 306 304 319 313 308 286 260 247 238 231 228 228 227 227 225 225 222 219 218 219 217 214 213 212 216 219 214 212 213 217 219 224 223 225 227 235 234 241 247 257 272
356 351 341 334 316 306 314 316 307 285 254 230 232 227 224 224 222 223 225 224 223 220 218 218 217 215 215 212 214 219 224 212 214 216 217 223 222 222 225 229 234 239 238 249 265
2 2 349 337 319 316 317 312 302 285 251 228 228 228 223 220 218 218 218 224 224 221 218 217 216 216 215 215 214 218 223 221 214 218 217 220 226 226 226 229 236 239 238 246 259
1 0 354 336 330 324 318 315 307 271 254 236 228 223 219 217 217 218 221 226 224 223 220 216 215 216 215 216 216 216 219 220 221 214 205 214 215 217 223 230 231 235 235 236 252
2 1 4 355 348 337 326 317 307 290 249 233 230 228 223 224 224 220 222 224 223 223 220 217 215 214 216 216 216 217 216 218 219 223 234 229 196 201 207 224 237 249 250 244 248
2 1 5 4 357 349 345 333 315 305 253 234 227 223 223 224 223 218 217 219 223 220 217 216 214 213 214 215 215 216 215 216 217 220 224 233 236 238 244 240 238 238 235 240 250
7 7 2 3 1 352 355 358 342 306 250 231 219 221 221 221 221 220 216 215 219 218 211 209 212 211 211 213 214 214 214 215 216 217 220 222 225 225 231 233 232 232 238 246 258
14 12 7 4 5 358 3 2 354 327 247 243 219 213 215 215 213 216 216 212 212 213 208 203 207 209 209 211 212 212 213 214 215 216 218 220 220 225 226 226 230 237 246 253 262
20 20 16 9 8 4 8 9 5 4 353 248 228 235 216 207 204 206 208 208 207 212 207 198 200 206 206 207 210 211 212 214 214 215 217 218 215 221 223 223 230 239 247 253 261
25 25 23 19 15 11 12 13 12 15 39 121 135 81 188 185 189 201 202 204 204 213 204 196 194 202 204 205 210 210 211 214 214 215 217 218 213 220 222 224 230 239 248 253 259
27 25 24 25 24 19 18 23 25 33 53 105 163 60 162 166 177 186 197 199 199 204 204 196 190 197 202 203 204 207 210 213 215 216 218 218 214 219 223 225 232 239 247 254 260
31 28 28 27 29 27 27 30 43 42 42 71 115 93 151 158 174 187 187 191 196 198 200 192 185 192 195 198 201 204 205 208 212 215 218 219 215 221 226 228 235 242 248 253 258
32 30 29 30 31 30 29 32 35 48 59 72 68 99 128 143 161 171 177 187 194 192 190 188 182 186 191 195 198 201 206 207 210 214 219 220 217 221 229 230 237 242 245 251 256
28 32 31 32 36 33 35 39 49 52 55 59 57 76 90 125 140 157 173 183 186 182 187 184 177 181 187 192 196 200 205 208 211 214 219 221 221 224 229 234 239 243 248 252 256
24 29 33 31 35 38 39 42 47 51 53 54 71 70 88 110 124 143 154 163 168 176 183 177 171 177 182 189 194 199 205 208 211 215 219 223 227 225 232 237 242 246 252 257 261
20 25 30 37 39 40 41 46 49 54 57 52 68 71 79 95 103 119 133 145 154 169 178 169 170 176 181 187 192 200 205 209 213 217 222 225 230 226 232 238 243 248 252 257 260
17 20 26 31 38 37 36 42 48 50 56 51 52 69 69 72 86 98 112 127 145 163 165 161 169 175 180 185 191 199 206 210 214 219 225 227 234 234 233 237 243 249 255 260 263
16 20 20 26 33 37 35 32 38 45 56 62 52 65 72 68 74 85 101 119 136 149 148 158 169 174 177 184 192 200 207 213 218 223 228 229 235 238 238 241 245 250 254 260 266
19 16 18 20 26 35 40 36 39 44 50 56 66 56 66 77 77 81 94 117 131 137 140 154 170 174 177 183 191 199 208 216 221 226 231 234 237 238 239 245 251 255 259 263 266
15 19 14 16 21 24 32 39 35 39 42 46 48 75 70 71 80 80 88 102 121 128 142 153 166 176 182 187 193 202 209 217 224 229 233 235 237 240 245 250 254 259 265 270 275
7 14 15 13 15 18 20 26 30 28 30 38 44 42 73 85 82 90 92 100 115 123 143 151 167 175 182 189 197 205 211 219 225 231 235 237 239 243 251 259 265 269 273 274 276
359 360 7 9 8 12 12 17 20 21 17 28 35 44 48 60 100 98 94 98 104 120 139 152 167 181 187 195 201 207 213 220 226 231 239 243 242 253 261 265 266 267 271 274 276
346 351 354 358 2 7 6 5 8 17 17 16 24 28 37 46 46 83 123 112 108 112 119 155 163 188 198 202 207 213 220 227 235 239 242 250 260 266 263 263 266 269 272 275 279
333 338 339 340 346 349 357 353 352 354 3 14 7 3 8 19 29 45 51 162 159 154 171 161 181 186 205 216 222 229 237 243 249 258 261 260 259 263 263 267 269 272 276 279 281
317 321 327 329 328 332 333 339 341 335 337 341 350 353 345 334 328 327 325 283 240 224 215 213 207 211 217 221 226 226 233 242 246 251 255 258 264 268 270 270 273 277 279 280 281
306 308 312 315 318 316 317 319 318 321 320 314 316 323 320 324 315 299 281 272 271 263 252 243 238 240 242 242 240 240 245 252 256 260 264 266 266 266 267 271 274 275 277 279 281
297 300 302 303 303 304 303 303 304 304 304 305 303 298 299 301 298 289 290 284 274 269 266 266 263 259 256 259 254 250 259 262 263 264 265 267 268 269 270 274 278 281 282 284 287